{"data":{"norad_id":67833,"epoch":"2026-09-19T16:14:14.748576Z","epoch_age_seconds":137632,"freshness":"FRESH","line1":"1 67833U 26033N   26262.67655959  .00010883  00000+0  40436-3 0  9990","line2":"2 67833  43.0022 251.3483 0001181 270.9735  89.0981 15.27585787 34344","mean_motion":15.27585787,"eccentricity":0.0001181,"inclination_deg":43.0022,"raan_deg":251.3483,"arg_perigee_deg":270.9735,"mean_anomaly_deg":89.0981,"bstar":0.00040436,"rev_number":3434,"period_min":94.266391600042,"perigee_km":482.22146370303,"apogee_km":483.84207176596,"semimajor_km":6861.1687677345,"source":"CELESTRAK","updated_at":"2026-09-20T09:00:43.669512Z"}}